Home > Weather > Lund > Past weeks

Flag for Sweden Past Weather in Lund, Sweden — Yesterday and Last 2 Weeks

Now
68 °F

Scattered clouds.


Feels Like: 68 °F
Forecast: 58 / 70 °F
Wind: 9 mph from South

Location: Malmo / Sturup

Current Time: Jul 29, 2016 at 7:59:31 PM

Latest Report: Jul 29, 2016 at 7:20 PM


Visibility: N/A

Pressure: 29.77 "Hg

Humidity: 83%

Dew Point: 63 °F

Location of LundLocation

Past Weather in Lund — Graph

°F

Lund Temperature Yesterday

Maximum temperature yesterday: 72 °F (at 3:20 PM)
Minimum temperature yesterday: 54 °F (at 11:20 PM)
Average temperature yesterday: 64 °F

High & Low Weather Summary for the Past Weeks

 TemperatureHumidityPressure
High81 °F (Jul 22, 2:20 PM)100% (Jul 15, 5:50 AM)30.15 "Hg (Jul 15, 5:50 AM)
Low50 °F (Jul 27, 4:20 AM)42% (Jul 22, 2:50 PM)29.77 "Hg (Jul 29, 5:50 PM)
Average64 °F79%30.04 "Hg
* Reported Jul 14 6:20 PM — Jul 29 6:20 PM, Lund, Weather by CustomWeather, © 2016

Note: Actual official high and low records may vary slightly from our data, if they occured in-between our weather recording intervals... More about our weather records

Advertising

Lund Weather History for the Previous 24 Hours

Scroll right to see more
 ConditionsComfort  
Time TempWeatherWind HumidityBarometerVisibility
6:20 PM
Fri, Jul 29
68 °FFog.12 mph83%29.77 "Hg6 mi
5:50 PM68 °FFog.10 mph78%29.77 "Hg6 mi
5:20 PM68 °FPartly sunny.9 mph78%29.80 "HgN/A
4:50 PM68 °FMostly cloudy.10 mph78%29.80 "HgN/A
4:20 PM68 °FBroken clouds.9 mph83%29.80 "HgN/A
3:50 PM68 °FBroken clouds.9 mph78%29.80 "HgN/A
3:20 PM66 °FDrizzle. Broken clouds.10 mph88%29.80 "HgN/A
2:50 PM68 °FBroken clouds.10 mph78%29.80 "HgN/A
2:20 PM70 °FBroken clouds.14 mph69%29.83 "HgN/A
1:50 PM68 °FBroken clouds.9 mph73%29.83 "HgN/A
1:20 PM68 °FBroken clouds.9 mph78%29.83 "HgN/A
12:50 PM68 °FBroken clouds.9 mph73%29.83 "HgN/A
12:20 PM68 °FBroken clouds.10 mph73%29.83 "HgN/A
11:50 AM66 °FMostly cloudy.10 mph78%29.83 "HgN/A
11:20 AM66 °FScattered clouds.9 mph78%29.86 "HgN/A
10:50 AM64 °FSunny.7 mph78%29.86 "Hg10 mi
10:20 AM63 °FSunny.7 mph88%29.86 "Hg10 mi
9:50 AM63 °FSunny.6 mph83%29.86 "Hg10 mi
9:20 AM61 °FSunny.7 mph83%29.86 "Hg10 mi
8:50 AM61 °FSunny.8 mph83%29.86 "Hg10 mi
8:20 AM59 °FSunny.6 mph88%29.86 "Hg10 mi
7:50 AM59 °FSunny.5 mph88%29.86 "Hg10 mi
7:20 AM59 °FSunny.5 mph82%29.86 "Hg10 mi
6:50 AM57 °FSunny.6 mph88%29.86 "Hg10 mi
6:20 AM54 °FSunny.6 mph94%29.86 "Hg10 mi
5:50 AM50 °FClear.5 mph100%29.86 "Hg10 mi
5:20 AM50 °FClear.6 mph94%29.86 "Hg10 mi
4:50 AM50 °FClear.5 mph94%29.89 "Hg10 mi
4:20 AM50 °FClear.5 mph100%29.89 "Hg10 mi
3:50 AM50 °FClear.5 mph100%29.89 "Hg10 mi
3:20 AM52 °FClear.3 mph94%29.89 "Hg10 mi
2:50 AM50 °FClear.3 mph100%29.89 "Hg10 mi
2:20 AM50 °FClear.3 mph100%29.89 "Hg10 mi
1:50 AM52 °FClear.3 mph94%29.89 "Hg10 mi
1:20 AM52 °FClear.5 mph100%29.92 "Hg10 mi
12:50 AM54 °FClear.2 mph94%29.92 "Hg10 mi
12:20 AM52 °FClear.3 mph100%29.92 "Hg10 mi
11:50 PM
Thu, Jul 28
54 °FClear.3 mph94%29.92 "Hg10 mi
11:20 PM54 °FClear.No wind94%29.92 "Hg10 mi
10:50 PM55 °FClear.No wind94%29.92 "Hg10 mi
10:20 PM57 °FClear.3 mph88%29.92 "Hg10 mi
9:50 PM59 °FSunny.2 mph82%29.92 "Hg10 mi
9:20 PM64 °FSunny.3 mph64%29.92 "Hg10 mi
8:50 PM66 °FPassing clouds.5 mph64%29.92 "HgN/A
8:20 PM64 °FPassing clouds.6 mph64%29.92 "HgN/A
7:50 PM68 °FPassing clouds.7 mph56%29.92 "HgN/A
7:20 PM68 °FPassing clouds.7 mph60%29.92 "HgN/A
Weather by CustomWeather, © 2016

See weather overviewHow to use our weather pages